Temp
22 21 21 21 22 23 23 23 23 24 24 25 25 25 22 21 17 16 16 21 23 27 29 27 30 33 33 33 35 35 35 38 39 38 41 43 43 44 47 50 52 54 54 55 54 54 54 55 55 55 56 58 58 58 58 58 59 59 60 60 61 61 60 59 59 60 59 60 60 61 62 62 62 62
21 21 21 21 21 23 23 22 23 24 24 25 25 25 25 24 18 18 16 18 25 26 29 29 28 32 32 34 34 35 35 38 39 37 37 38 41 44 45 46 48 52 53 52 52 52 53 54 54 55 55 56 57 59 59 59 59 59 59 59 59 59 59 58 58 58 58 59 59 57 58 60 61 61
20 18 19 21 21 22 22 23 23 24 24 23 24 24 24 23 23 21 20 17 23 28 26 29 32 31 32 34 34 34 35 36 38 37 37 37 39 41 41 42 44 48 51 51 51 51 51 52 53 53 54 55 55 56 58 59 59 59 59 59 58 58 57 57 57 57 56 57 58 58 58 58 60 60
19 19 18 19 20 21 21 21 22 23 23 24 23 23 23 23 23 22 21 18 18 27 26 28 30 32 32 33 33 33 34 36 38 36 37 37 39 39 38 40 42 44 46 48 49 51 52 53 53 53 53 54 55 55 55 57 58 58 59 59 58 58 57 57 57 57 56 57 59 59 59 59 59 60
19 18 18 18 19 20 19 19 20 21 22 22 22 23 23 22 24 23 20 18 18 24 28 29 29 31 32 31 33 32 33 34 35 37 36 37 37 38 38 39 40 42 44 45 47 49 51 51 50 51 52 53 54 55 55 55 57 59 58 56 57 58 57 57 57 56 56 57 59 60 59 59 59 59
17 17 17 18 18 19 18 18 19 20 20 21 20 21 21 22 22 24 21 21 21 20 28 29 30 29 30 28 32 31 31 32 34 34 35 37 37 38 40 40 40 41 42 43 45 47 49 50 50 50 50 50 52 53 53 54 55 56 55 54 54 56 56 57 57 55 55 57 57 59 59 59 59 59
15 15 15 16 18 19 18 18 19 20 20 21 21 20 21 21 22 24 24 22 20 20 22 27 28 28 29 28 30 31 32 33 34 34 35 35 36 38 39 39 39 40 42 44 46 46 47 47 48 49 49 49 50 52 54 53 52 52 53 53 52 52 54 54 55 56 55 55 58 58 58 58 59 59
14 14 14 15 17 18 17 18 19 20 21 20 20 20 21 21 21 22 23 24 22 22 20 23 24 27 27 29 31 32 32 32 33 34 35 36 36 36 37 37 38 39 42 44 44 45 45 45 46 47 47 48 49 49 49 50 50 50 50 50 51 51 51 52 52 54 54 54 55 57 58 58 58 59
17 15 14 16 16 17 16 17 17 18 18 19 20 20 21 21 22 22 22 22 23 21 20 21 24 26 27 29 30 31 29 30 32 33 34 35 36 37 38 38 38 39 41 41 43 43 44 44 44 45 46 47 47 47 48 49 49 49 48 48 48 50 50 50 51 51 51 51 53 54 56 57 56 55
18 17 17 18 17 16 14 15 16 17 17 18 19 19 20 21 22 22 23 23 23 22 21 22 22 24 24 25 27 29 30 29 29 31 33 34 34 35 35 35 36 37 37 37 38 40 41 42 43 44 45 45 46 46 47 47 47 47 47 47 48 48 49 50 49 49 49 49 49 51 53 54 53 53
16 16 16 16 16 15 14 14 15 15 16 17 17 18 18 20 20 21 22 23 23 23 23 24 24 25 26 26 25 28 30 30 29 29 29 31 34 34 33 34 36 35 34 36 38 36 36 37 38 40 42 44 45 45 45 45 45 45 46 47 48 48 48 49 49 48 48 48 48 49 50 50 51 53
14 15 15 16 16 16 16 15 16 16 16 17 16 17 18 19 20 20 22 22 22 22 23 23 24 25 25 26 27 29 28 26 27 28 28 28 30 32 31 32 34 33 33 32 32 35 35 36 38 40 41 41 42 43 43 43 42 43 45 47 47 48 48 49 49 48 47 47 47 47 48 48 48 50
16 16 17 17 18 18 19 21 21 21 21 18 16 17 18 19 20 21 22 22 23 23 23 24 25 26 26 26 26 25 25 25 26 29 29 28 30 31 30 29 31 32 32 31 32 30 31 31 32 32 33 35 38 39 41 41 41 43 45 46 47 47 48 48 48 48 48 47 47 47 47 47 47 47
14 15 16 17 19 20 20 21 22 23 24 24 23 21 21 21 21 21 22 22 23 23 23 23 24 23 23 24 25 25 27 28 29 28 27 26 29 29 28 29 29 29 30 30 30 31 31 31 31 32 32 34 35 34 35 38 41 42 44 46 46 47 47 47 48 48 48 48 47 47 47 47 47 47
14 15 16 17 18 19 20 21 23 24 25 25 26 27 27 27 24 23 22 23 24 24 24 25 25 25 25 26 28 28 29 30 28 28 28 28 27 26 26 26 29 30 30 29 29 30 31 31 32 34 34 35 34 34 33 38 40 42 44 45 46 47 47 47 47 48 48 48 48 47 47 47 47 47
15 15 15 17 18 19 20 21 21 23 25 26 27 27 28 28 29 29 26 24 23 24 24 24 25 25 25 26 28 28 27 27 27 27 27 27 27 26 27 27 27 26 32 30 30 29 32 32 32 33 34 35 34 35 38 41 42 43 44 45 45 46 46 47 47 47 47 48 48 47 47 47 46 46
16 17 17 17 19 20 22 22 22 22 23 25 26 27 28 28 29 29 30 30 28 27 26 25 26 26 27 26 28 29 27 28 24 25 26 27 28 28 28 28 29 24 30 30 30 29 32 33 31 31 34 34 34 35 38 40 41 43 44 44 44 44 46 46 46 47 47 47 47 47 46 46 46 46
18 18 18 19 19 21 22 22 23 24 24 25 25 26 26 27 28 29 30 30 30 30 28 27 26 28 29 28 29 30 31 28 26 26 26 28 27 27 26 29 27 25 32 29 29 28 30 32 31 30 32 35 34 34 36 39 41 41 42 44 44 44 44 45 45 46 46 46 46 46 46 46 46 46
21 22 22 21 21 21 22 23 24 23 23 23 24 25 26 27 27 28 28 28 28 28 29 28 28 29 30 30 30 30 31 30 30 30 29 29 29 29 27 26 25 25 29 30 30 24 30 33 30 30 32 34 33 34 36 39 40 41 41 43 44 44 43 43 44 44 45 45 45 45 45 45 44 44
22 22 22 21 21 21 22 23 26 26 25 25 24 24 26 26 27 27 30 31 31 29 28 28 28 28 30 32 31 31 30 30 31 31 29 29 28 27 26 25 24 25 29 31 29 27 28 30 30 30 32 32 31 33 33 37 40 41 41 42 43 44 44 43 43 43 43 44 44 44 44 44 43 43
21 22 22 22 21 21 21 24 27 28 28 25 24 25 25 26 26 26 28 32 33 33 33 33 34 33 33 34 35 35 35 32 30 28 28 27 28 26 24 24 25 25 27 29 30 28 26 28 29 29 30 30 30 31 32 33 37 40 41 42 43 43 43 43 43 43 43 43 43 43 43 43 41 41
22 22 24 24 22 22 22 26 27 29 27 25 25 25 25 25 25 25 26 25 28 33 34 34 34 34 34 34 34 35 35 35 32 28 26 26 26 25 25 22 23 22 25 28 31 27 25 29 29 28 28 30 29 30 31 32 34 38 39 41 42 42 43 43 43 43 43 43 43 43 43 42 40 38
23 23 24 24 24 24 25 27 28 29 28 26 26 26 25 24 24 25 25 24 24 24 24 26 28 29 31 31 31 30 33 33 32 30 30 27 26 25 24 23 22 21 22 27 31 26 26 27 28 28 26 22 27 30 30 31 32 32 33 34 37 40 41 41 41 42 43 42 42 43 43 41 40 35
23 23 24 25 26 28 28 29 30 30 30 27 27 27 25 23 22 25 24 24 24 23 24 24 25 25 25 25 22 25 26 28 30 30 29 29 28 25 23 23 24 21 21 23 30 27 27 29 27 29 26 24 22 26 29 29 31 31 32 33 33 36 39 38 38 40 41 41 41 42 42 42 40 35
23 23 24 25 27 28 29 29 30 31 31 31 28 27 26 26 27 28 23 25 27 25 24 24 24 23 22 22 23 24 24 25 27 30 28 27 28 26 23 21 23 23 25 24 31 28 25 28 27 28 26 25 25 25 25 26 29 30 31 32 32 33 33 33 34 35 38 40 41 41 41 41 42 39
22 23 24 24 26 28 29 30 30 31 31 31 29 28 30 31 31 29 27 24 24 24 25 24 25 25 23 21 22 24 25 25 26 26 27 25 24 27 27 25 22 20 24 26 32 28 26 25 28 26 25 24 23 24 24 23 25 27 30 31 32 32 33 32 32 32 33 33 33 37 38 41 40 41
21 22 23 25 27 28 29 30 30 31 31 31 29 31 31 30 30 30 28 26 24 23 23 24 24 25 25 24 24 25 26 26 26 26 25 25 25 23 21 21 21 23 24 23 30 29 26 25 28 28 24 24 24 21 22 22 24 25 27 27 30 31 32 32 31 31 31 32 32 36 36 36 36 38
22 21 22 24 27 28 29 29 29 30 29 28 30 31 31 30 30 28 27 26 26 25 24 24 24 25 25 25 25 26 27 27 27 27 26 26 24 23 18 17 20 20 19 21 26 27 25 26 27 28 28 25 23 22 21 21 22 24 24 23 25 26 29 31 30 30 30 31 31 31 31 31 32 32
22 24 26 27 27 27 27 28 28 27 27 28 29 29 29 28 28 27 26 26 25 24 24 24 25 25 26 26 27 28 28 28 28 27 27 24 21 19 18 14 16 18 19 19 20 23 24 27 29 27 26 25 25 22 22 20 22 22 22 25 23 23 24 28 29 29 29 30 30 30 30 31 31 32
25 25 25 25 24 24 24 23 22 23 25 26 27 27 27 27 26 25 25 25 25 24 25 25 24 25 25 25 27 27 27 28 28 28 27 25 23 23 22 19 15 14 19 21 21 20 22 27 28 28 27 25 25 23 21 22 19 20 21 21 21 22 21 23 26 27 28 27 29 29 29 30 31 31
21 22 22 21 22 21 22 21 21 21 22 22 22 22 22 22 24 25 25 25 25 25 25 25 25 26 26 25 25 24 25 26 26 28 27 26 25 24 22 21 15 14 17 21 23 21 21 23 26 29 26 23 24 25 24 23 21 20 17 19 23 22 21 20 22 25 26 26 26 27 28 28 28 30
20 20 21 20 19 18 17 17 16 17 18 19 20 20 21 22 22 23 26 27 26 26 27 26 26 24 24 23 25 24 25 25 26 27 27 27 25 25 24 23 19 16 17 20 22 22 21 20 22 24 26 27 24 20 21 22 23 22 18 15 14 15 19 24 21 19 23 25 24 21 22 24 25 26
19 19 17 15 15 14 14 13 12 13 15 16 18 18 19 18 17 18 18 21 24 25 25 25 25 24 24 24 24 23 23 25 26 27 27 27 26 25 26 25 21 20 20 19 19 20 21 20 19 21 21 21 23 24 22 18 16 20 21 16 14 14 14 16 19 17 16 21 16 18 18 17 17 20
16 15 13 12 11 12 12 12 12 13 14 14 15 16 18 18 17 18 19 20 22 23 24 25 24 24 24 24 24 23 24 24 25 27 27 25 26 25 24 24 22 22 22 20 20 20 18 19 22 23 23 22 22 22 22 20 18 17 17 17 17 16 14 12 14 14 17 13 17 15 15 18 15 13
13 12 10 10 11 12 12 12 13 13 13 13 14 15 16 17 17 17 18 19 21 23 24 24 23 23 24 24 24 24 24 24 25 25 25 25 26 25 25 23 22 21 21 19 19 19 18 19 21 21 21 22 23 23 25 19 17 16 15 16 14 17 14 12 13 13 15 12 14 14 10 10 11 15
10 9 8 9 9 10 10 11 13 13 12 13 13 14 14 15 16 16 16 18 19 22 24 24 23 23 24 24 24 25 24 25 25 25 24 24 24 24 25 24 23 22 21 21 19 19 20 21 21 20 19 18 18 18 18 23 18 11 18 12 12 11 10 10 8 9 11 10 10 11 11 13 14 13
7 6 7 8 8 8 8 9 10 11 12 12 13 13 13 13 15 16 17 19 18 20 22 23 24 24 24 25 25 24 24 24 24 24 24 24 24 24 23 22 22 21 20 19 20 19 20 21 21 21 20 18 18 17 18 12 17 21 16 15 8 8 10 7 9 10 6 6 7 9 11 9 9 10
6 6 6 7 7 8 8 8 9 9 10 11 12 12 13 14 15 16 18 17 17 17 18 19 19 21 23 23 24 24 24 24 24 23 22 23 22 23 23 23 22 21 18 16 18 18 19 19 20 21 21 20 17 15 14 14 12 15 20 15 14 5 7 9 6 8 9 4 9 7 5 10 10 8
4 5 5 5 6 6 6 7 7 7 8 9 10 11 12 12 13 14 15 15 16 17 17 18 18 19 20 22 23 24 23 23 23 22 21 19 20 22 22 21 18 17 16 15 16 17 18 18 18 17 18 18 17 14 15 12 10 6 11 23 14 10 6 12 12 6 6 7 7 2 3 4 11 20
3 5 4 3 3 4 4 4 4 5 6 6 7 10 11 10 11 11 12 13 14 15 16 16 17 18 19 20 21 22 23 23 22 22 21 21 20 21 21 19 18 16 16 15 15 15 17 17 17 19 18 17 16 14 14 13 7 8 2 10 24 18 13 12 12 8 5 4 0 4 6 2 6 4
2 2 1 2 2 1 1 1 1 3 3 3 4 8 9 10 9 9 10 11 11 13 13 14 15 16 17 18 18 20 19 18 19 19 19 19 19 19 18 16 17 17 16 14 14 14 13 12 13 14 16 16 17 18 19 17 14 10 9 9 19 24 21 17 17 15 9 6 11 10 7 5 3 1
-4 -4 -2 -1 -1 -1 -1 -2 -1 -0 0 1 2 4 7 8 8 9 8 8 9 10 11 12 12 13 14 15 17 17 18 17 17 17 17 17 17 16 17 18 17 16 16 14 14 13 11 12 13 15 15 16 16 17 15 16 13 11 11 9 9 17 23 24 23 19 16 13 11 5 2 0 -2 1
-6 -8 -7 -3 -1 -2 -3 -3 -3 -2 -2 -2 -1 1 4 6 5 4 4 4 5 7 7 9 10 11 11 13 14 15 16 16 16 16 16 16 17 17 16 16 17 17 16 13 11 11 11 12 13 13 12 11 9 13 13 10 10 10 10 10 11 7 10 17 21 24 21 19 19 14 10 7 2 -0
-9 -10 -9 -7 -5 -5 -4 -4 -4 -2 -2 -3 -2 -1 1 3 2 1 0 1 2 2 3 5 6 8 9 10 12 13 12 12 13 14 14 13 14 15 15 14 13 11 10 9 9 8 7 7 5 8 8 5 3 5 7 6 6 5 5 6 1 -0 2 1 -1 10 16 21 24 24 24 21 19 17
-10 -11 -11 -8 -7 -6 -5 -5 -4 -4 -3 -4 -4 -4 -2 -1 -0 -1 -2 -2 -2 -2 -1 0 2 4 7 7 9 9 9 12 12 11 11 11 11 12 12 12 11 9 8 8 7 4 2 2 2 1 -0 -1 -1 1 2 2 -0 -1 -2 -3 2 -2 -4 -0 3 2 -0 3 13 22 23 24 24 24
MSLP
1024.90 1024.94 1024.98 1024.94 1024.66 1024.58 1024.66 1024.62 1024.62 1024.66 1024.66 1024.66 1024.70 1024.70 1024.70 1024.74 1024.50 1024.10 1023.46 1022.30 1021.82 1020.94 1021.14 1020.78 1019.86 1019.98 1019.78 1019.78 1019.70 1019.62 1019.50 1019.38 1019.30 1019.22 1018.98 1018.74 1018.50 1018.26 1018.02 1017.86 1017.78 1017.66 1017.54 1017.54 1017.58 1017.66 1017.78 1017.86 1017.94 1017.98 1017.86 1017.78 1017.70 1017.74 1017.82 1017.98 1018.14 1018.22 1018.30 1018.30 1018.34 1018.42 1018.58 1018.74 1018.94 1019.30 1019.82 1020.10 1020.26 1020.26 1020.38 1020.66 1021.10 1021.38
1024.86 1024.70 1024.58 1024.58 1024.46 1024.38 1024.38 1024.38 1024.30 1024.26 1024.34 1024.34 1024.30 1024.30 1024.18 1024.18 1024.42 1024.18 1023.86 1022.62 1021.90 1021.18 1020.90 1020.82 1020.38 1020.06 1019.90 1019.70 1019.50 1019.54 1019.34 1019.22 1019.18 1019.14 1019.06 1018.86 1018.66 1018.46 1018.26 1017.98 1017.70 1017.54 1017.46 1017.42 1017.42 1017.46 1017.54 1017.62 1017.70 1017.78 1017.82 1017.74 1017.66 1017.54 1017.54 1017.66 1017.82 1018.02 1018.06 1018.10 1018.14 1018.18 1018.34 1018.54 1018.74 1018.98 1019.26 1019.66 1020.02 1020.54 1020.82 1020.66 1020.86 1021.14
1024.70 1024.54 1024.42 1024.22 1024.14 1024.10 1024.18 1024.10 1024.10 1024.06 1024.06 1024.02 1023.98 1023.86 1023.86 1023.78 1023.82 1023.66 1023.50 1023.06 1021.34 1021.78 1021.06 1020.78 1020.46 1020.26 1020.06 1019.74 1019.58 1019.34 1019.18 1019.02 1018.98 1018.94 1018.86 1018.78 1018.62 1018.46 1018.30 1018.10 1017.90 1017.58 1017.30 1017.22 1017.26 1017.26 1017.34 1017.38 1017.46 1017.54 1017.58 1017.62 1017.58 1017.54 1017.34 1017.34 1017.42 1017.58 1017.78 1017.86 1017.90 1017.98 1018.06 1018.22 1018.38 1018.62 1018.82 1019.14 1019.62 1020.02 1020.34 1020.54 1020.58 1020.86
1024.46 1024.34 1024.34 1024.26 1024.10 1023.98 1023.90 1023.82 1023.82 1023.82 1023.74 1023.74 1023.66 1023.62 1023.62 1023.54 1023.46 1023.42 1023.30 1022.94 1021.70 1021.54 1021.42 1020.90 1020.54 1020.34 1020.06 1019.78 1019.50 1019.22 1018.94 1018.70 1018.66 1018.70 1018.62 1018.50 1018.38 1018.22 1018.10 1017.90 1017.74 1017.62 1017.50 1017.30 1017.14 1017.10 1017.06 1017.06 1017.10 1017.14 1017.22 1017.30 1017.38 1017.42 1017.34 1017.18 1017.14 1017.22 1017.30 1017.42 1017.58 1017.70 1017.74 1017.78 1017.94 1018.14 1018.42 1018.66 1018.98 1019.50 1019.86 1020.14 1020.54 1020.58
1024.42 1024.18 1024.06 1023.94 1023.90 1023.90 1023.86 1023.70 1023.66 1023.58 1023.50 1023.46 1023.38 1023.34 1023.34 1023.26 1023.06 1022.94 1022.90 1022.70 1021.90 1021.02 1021.18 1020.78 1020.38 1020.10 1020.18 1019.70 1019.50 1019.14 1018.86 1018.62 1018.42 1018.34 1018.30 1018.22 1018.10 1017.94 1017.78 1017.62 1017.50 1017.38 1017.34 1017.30 1017.18 1017.06 1016.90 1016.86 1016.86 1016.90 1016.94 1016.98 1017.02 1017.10 1017.14 1017.14 1017.02 1016.86 1016.94 1017.06 1017.18 1017.34 1017.46 1017.46 1017.54 1017.74 1017.98 1018.34 1018.50 1018.70 1019.18 1019.66 1019.94 1020.34
1024.22 1024.10 1023.86 1023.70 1023.62 1023.54 1023.50 1023.46 1023.46 1023.38 1023.30 1023.26 1023.22 1023.06 1022.98 1022.90 1022.66 1022.58 1022.50 1022.06 1021.58 1020.90 1020.62 1020.10 1019.90 1019.78 1019.82 1019.66 1019.42 1019.26 1018.94 1018.46 1018.38 1018.18 1018.02 1017.82 1017.74 1017.50 1017.30 1017.14 1017.02 1017.06 1017.06 1017.02 1016.98 1016.94 1016.82 1016.66 1016.58 1016.58 1016.62 1016.70 1016.74 1016.74 1016.78 1016.86 1016.86 1016.78 1016.74 1016.78 1016.86 1016.98 1017.10 1017.18 1017.18 1017.30 1017.58 1017.86 1018.30 1018.34 1018.34 1018.86 1019.42 1019.82
1023.86 1023.78 1023.66 1023.50 1023.38 1023.26 1023.18 1023.14 1023.10 1023.06 1022.94 1022.82 1022.74 1022.66 1022.62 1022.54 1022.38 1022.14 1021.98 1021.86 1021.42 1021.10 1020.54 1020.22 1019.66 1019.58 1019.46 1019.46 1019.10 1018.98 1018.82 1018.54 1018.26 1018.02 1017.74 1017.62 1017.38 1017.18 1017.02 1016.86 1016.74 1016.66 1016.66 1016.66 1016.62 1016.58 1016.58 1016.54 1016.38 1016.34 1016.38 1016.38 1016.42 1016.42 1016.34 1016.34 1016.54 1016.66 1016.70 1016.58 1016.58 1016.66 1016.78 1016.86 1016.90 1016.94 1017.10 1017.34 1017.62 1017.94 1018.14 1018.34 1018.82 1019.30
1023.42 1023.34 1023.30 1023.14 1023.10 1022.98 1022.86 1022.70 1022.62 1022.50 1022.46 1022.42 1022.34 1022.22 1022.14 1022.14 1021.94 1021.82 1021.66 1021.42 1021.22 1020.74 1020.46 1019.94 1020.02 1019.50 1019.50 1019.10 1018.90 1018.58 1018.54 1018.30 1018.10 1017.82 1017.46 1017.18 1017.06 1016.86 1016.70 1016.62 1016.54 1016.42 1016.34 1016.26 1016.18 1016.14 1016.18 1016.26 1016.26 1016.18 1016.18 1016.18 1016.18 1016.18 1016.22 1016.14 1016.10 1016.26 1016.38 1016.42 1016.38 1016.38 1016.50 1016.54 1016.62 1016.62 1016.70 1016.86 1017.14 1017.50 1017.78 1017.98 1018.22 1018.58
1022.66 1022.66 1022.62 1022.58 1022.54 1022.46 1022.38 1022.30 1022.26 1022.18 1022.14 1022.02 1021.94 1021.82 1021.62 1021.50 1021.38 1021.30 1021.22 1021.02 1020.78 1020.62 1020.26 1019.74 1019.22 1019.34 1019.18 1019.02 1018.46 1018.26 1018.22 1017.86 1017.62 1017.42 1017.18 1016.90 1016.58 1016.38 1016.14 1016.10 1015.98 1015.94 1015.94 1015.86 1015.78 1015.78 1015.82 1015.86 1015.90 1015.90 1015.90 1015.94 1015.94 1015.98 1015.94 1015.94 1015.90 1015.86 1015.98 1016.18 1016.26 1016.18 1016.18 1016.26 1016.34 1016.38 1016.38 1016.50 1016.74 1016.98 1017.26 1017.54 1017.86 1018.18
1022.02 1021.94 1021.90 1021.90 1021.94 1021.98 1022.06 1022.06 1022.02 1021.98 1021.86 1021.78 1021.62 1021.50 1021.34 1021.18 1021.02 1020.90 1020.70 1020.46 1020.30 1020.18 1019.82 1019.46 1018.94 1018.82 1018.94 1018.62 1018.22 1017.74 1017.70 1017.62 1017.22 1016.98 1016.74 1016.50 1016.26 1016.10 1015.86 1015.70 1015.74 1015.66 1015.70 1015.66 1015.58 1015.54 1015.50 1015.50 1015.54 1015.54 1015.58 1015.58 1015.62 1015.70 1015.70 1015.70 1015.66 1015.62 1015.58 1015.74 1015.90 1015.98 1015.90 1015.94 1016.06 1016.10 1016.14 1016.18 1016.34 1016.62 1016.74 1017.02 1017.34 1017.74
1022.02 1021.90 1021.82 1021.82 1021.82 1021.82 1021.82 1021.82 1021.78 1021.70 1021.66 1021.58 1021.46 1021.34 1021.14 1020.94 1020.82 1020.58 1020.30 1020.06 1019.86 1019.58 1019.22 1018.70 1018.42 1018.10 1017.86 1018.02 1017.74 1017.06 1016.98 1017.02 1016.94 1016.74 1016.46 1016.06 1015.70 1015.58 1015.54 1015.26 1015.18 1015.26 1015.30 1015.30 1015.26 1015.26 1015.30 1015.30 1015.26 1015.26 1015.26 1015.26 1015.26 1015.30 1015.38 1015.42 1015.46 1015.42 1015.34 1015.26 1015.34 1015.54 1015.62 1015.62 1015.74 1015.86 1015.90 1015.90 1015.98 1016.18 1016.46 1016.70 1017.10 1017.38
1021.70 1021.54 1021.46 1021.42 1021.34 1021.34 1021.34 1021.38 1021.34 1021.34 1021.30 1021.18 1021.10 1020.82 1020.78 1020.62 1020.50 1020.30 1019.98 1019.74 1019.54 1019.22 1018.74 1018.30 1017.82 1017.50 1017.26 1017.06 1016.98 1016.46 1016.46 1016.70 1016.54 1016.38 1016.22 1015.82 1015.30 1015.02 1014.98 1014.86 1014.74 1014.74 1014.98 1015.06 1015.06 1015.02 1015.02 1015.06 1015.10 1015.06 1015.02 1014.98 1014.98 1014.98 1015.02 1015.06 1015.14 1015.14 1015.06 1014.98 1014.90 1014.98 1015.14 1015.26 1015.34 1015.50 1015.66 1015.74 1015.70 1015.82 1016.14 1016.46 1016.74 1017.06
1021.14 1021.02 1020.90 1020.82 1020.74 1020.70 1020.66 1020.66 1020.58 1020.54 1020.58 1020.66 1020.58 1020.22 1020.22 1020.14 1020.02 1019.78 1019.46 1019.14 1018.82 1018.42 1018.06 1017.58 1017.14 1016.94 1016.54 1016.18 1016.18 1016.18 1016.14 1016.14 1015.74 1015.06 1015.18 1015.18 1014.86 1014.62 1014.62 1014.54 1014.54 1014.50 1014.58 1014.74 1014.78 1014.86 1014.86 1014.94 1014.90 1014.94 1014.90 1014.82 1014.78 1014.70 1014.66 1014.66 1014.66 1014.70 1014.66 1014.62 1014.58 1014.54 1014.66 1014.78 1014.90 1015.06 1015.30 1015.54 1015.62 1015.62 1015.78 1016.14 1016.42 1016.66
1020.62 1020.50 1020.34 1020.22 1020.18 1020.18 1020.06 1019.94 1019.82 1019.70 1019.58 1019.54 1019.50 1019.26 1019.26 1019.22 1019.14 1018.94 1018.70 1018.34 1017.98 1017.70 1017.30 1016.90 1016.58 1016.38 1015.98 1015.66 1015.66 1015.70 1015.30 1015.02 1014.86 1014.86 1014.98 1015.02 1014.42 1014.34 1014.34 1014.30 1014.06 1014.26 1014.38 1014.46 1014.54 1014.50 1014.54 1014.70 1014.74 1014.74 1014.70 1014.54 1014.58 1014.50 1014.46 1014.30 1014.26 1014.22 1014.26 1014.22 1014.18 1014.18 1014.22 1014.38 1014.46 1014.58 1014.86 1015.10 1015.34 1015.46 1015.54 1015.74 1016.02 1016.34
1020.02 1019.86 1019.78 1019.66 1019.54 1019.46 1019.34 1019.22 1019.10 1018.94 1018.70 1018.58 1018.42 1018.18 1017.98 1017.98 1018.02 1017.98 1017.82 1017.54 1017.22 1017.06 1016.66 1016.18 1015.90 1015.62 1015.30 1015.10 1015.10 1015.02 1014.70 1014.46 1014.30 1014.10 1014.14 1014.22 1014.14 1014.22 1014.42 1014.06 1013.62 1013.66 1013.94 1014.18 1014.22 1014.06 1014.06 1014.34 1014.42 1014.30 1014.26 1014.22 1014.26 1014.26 1014.06 1014.02 1013.94 1013.90 1013.86 1013.86 1013.78 1013.78 1013.86 1014.02 1014.18 1014.26 1014.42 1014.62 1014.86 1015.14 1015.26 1015.46 1015.86 1016.10
1019.34 1019.26 1019.18 1019.02 1018.86 1018.70 1018.58 1018.54 1018.38 1018.14 1017.94 1017.70 1017.46 1017.26 1017.06 1016.90 1016.82 1016.82 1016.86 1016.82 1016.66 1016.38 1016.14 1015.78 1015.46 1015.30 1014.98 1014.78 1014.74 1014.54 1014.54 1014.18 1013.82 1013.62 1013.74 1013.82 1013.86 1013.90 1013.82 1013.58 1013.30 1013.14 1013.30 1013.74 1013.82 1013.78 1013.66 1013.86 1014.02 1013.86 1013.74 1013.78 1013.78 1013.74 1013.62 1013.50 1013.50 1013.54 1013.58 1013.54 1013.42 1013.34 1013.42 1013.58 1013.74 1013.90 1014.06 1014.30 1014.46 1014.70 1014.94 1015.10 1015.42 1015.82
1018.58 1018.50 1018.42 1018.22 1017.98 1017.78 1017.78 1017.74 1017.58 1017.42 1017.14 1016.86 1016.62 1016.46 1016.26 1016.02 1015.86 1015.78 1015.70 1015.70 1015.70 1015.62 1015.58 1015.26 1014.90 1014.74 1014.62 1014.54 1014.18 1014.10 1014.22 1014.06 1013.86 1013.58 1013.50 1013.42 1013.34 1013.34 1013.30 1012.98 1012.86 1012.98 1013.22 1013.58 1013.58 1013.50 1013.14 1013.42 1013.50 1013.46 1013.22 1013.34 1013.42 1013.46 1013.34 1013.18 1013.18 1013.22 1013.30 1013.34 1013.22 1013.02 1012.98 1013.14 1013.38 1013.58 1013.78 1014.06 1014.30 1014.42 1014.58 1014.78 1014.98 1015.22
1017.78 1017.74 1017.66 1017.46 1017.14 1016.98 1017.06 1016.94 1016.82 1016.58 1016.30 1016.06 1015.86 1015.62 1015.50 1015.22 1014.86 1014.70 1014.70 1014.78 1014.86 1014.86 1014.82 1014.70 1014.46 1014.06 1014.26 1014.14 1013.74 1013.66 1013.74 1013.82 1013.62 1013.34 1013.18 1013.06 1013.26 1013.26 1013.06 1012.94 1012.94 1013.02 1013.02 1013.26 1013.38 1013.10 1012.86 1012.90 1013.26 1012.98 1012.86 1012.90 1013.06 1013.06 1013.02 1012.94 1012.78 1012.86 1013.02 1013.06 1013.10 1012.94 1012.74 1012.86 1013.02 1013.22 1013.46 1013.70 1013.98 1014.26 1014.42 1014.62 1014.82 1014.94
1016.90 1016.82 1016.78 1016.62 1016.42 1016.30 1016.26 1016.10 1016.10 1016.06 1015.90 1015.74 1015.38 1015.06 1014.66 1014.26 1013.94 1013.94 1014.02 1014.14 1014.22 1014.18 1014.10 1013.94 1013.74 1013.66 1013.78 1013.70 1013.54 1013.50 1013.42 1013.38 1013.10 1012.86 1012.74 1012.70 1012.74 1012.74 1012.90 1012.98 1013.06 1013.06 1012.98 1012.98 1013.10 1012.98 1012.46 1012.46 1012.78 1012.66 1012.58 1012.62 1012.74 1012.74 1012.66 1012.62 1012.50 1012.50 1012.66 1012.78 1012.82 1012.86 1012.74 1012.74 1012.98 1013.10 1013.26 1013.50 1013.78 1014.06 1014.30 1014.42 1014.70 1014.98
1016.26 1016.26 1016.26 1016.22 1016.06 1015.90 1015.70 1015.42 1015.54 1015.38 1015.18 1014.98 1014.74 1014.50 1014.02 1013.66 1013.46 1013.42 1013.30 1013.34 1013.42 1013.46 1013.46 1013.38 1013.26 1013.26 1013.30 1013.22 1013.26 1013.26 1013.22 1013.10 1012.82 1012.74 1012.74 1012.74 1012.78 1012.86 1012.98 1012.94 1012.74 1012.90 1012.78 1012.82 1012.86 1012.78 1012.38 1012.46 1012.50 1012.46 1012.34 1012.50 1012.54 1012.50 1012.50 1012.34 1012.18 1012.14 1012.26 1012.46 1012.46 1012.50 1012.58 1012.58 1012.74 1013.06 1013.34 1013.54 1013.70 1013.94 1014.22 1014.42 1014.62 1014.94
1015.70 1015.66 1015.58 1015.54 1015.42 1015.26 1015.02 1014.70 1014.66 1014.54 1014.54 1014.42 1014.18 1013.94 1013.58 1013.26 1013.14 1012.98 1012.82 1012.70 1012.62 1012.62 1012.62 1012.58 1012.62 1012.70 1012.74 1012.74 1012.66 1012.70 1012.62 1012.58 1012.54 1012.62 1012.66 1012.58 1012.54 1012.70 1012.82 1012.74 1012.74 1012.54 1012.42 1012.54 1012.62 1012.66 1012.50 1012.34 1012.46 1012.50 1012.38 1012.38 1012.38 1012.30 1012.26 1012.18 1011.94 1011.86 1011.90 1012.06 1012.10 1012.18 1012.30 1012.38 1012.58 1012.82 1013.14 1013.46 1013.74 1013.98 1014.18 1014.42 1014.70 1015.02
1015.18 1015.06 1014.94 1014.90 1014.86 1014.74 1014.46 1014.18 1013.90 1013.74 1013.82 1013.82 1013.58 1013.38 1013.18 1013.02 1012.90 1012.70 1012.54 1012.54 1012.42 1012.22 1012.10 1012.10 1012.02 1012.02 1012.02 1012.06 1012.06 1012.06 1012.02 1012.02 1012.26 1012.34 1012.38 1011.98 1012.18 1012.38 1012.46 1012.50 1012.38 1012.26 1012.34 1012.38 1012.46 1012.74 1012.34 1012.18 1012.34 1012.42 1012.38 1012.30 1012.26 1012.14 1012.06 1012.02 1011.94 1011.86 1011.82 1011.78 1011.86 1011.90 1012.02 1012.26 1012.46 1012.70 1012.94 1013.26 1013.62 1013.90 1014.18 1014.50 1014.78 1015.10
1014.54 1014.46 1014.34 1014.26 1014.14 1013.98 1013.74 1013.46 1013.22 1013.06 1013.10 1013.14 1012.94 1012.74 1012.66 1012.58 1012.50 1012.22 1012.26 1012.38 1012.34 1012.22 1012.18 1011.98 1011.86 1011.78 1011.70 1011.74 1011.74 1011.74 1011.74 1011.70 1011.86 1011.90 1011.78 1011.86 1012.14 1012.22 1012.30 1012.30 1012.22 1012.38 1012.22 1011.98 1012.14 1012.42 1012.10 1012.14 1012.30 1012.18 1012.34 1012.50 1012.14 1011.98 1011.98 1011.90 1011.86 1011.90 1011.94 1011.94 1011.86 1011.86 1012.02 1012.18 1012.38 1012.62 1012.90 1013.22 1013.50 1013.78 1014.02 1014.34 1014.74 1015.10
1013.94 1013.86 1013.70 1013.54 1013.38 1013.14 1012.90 1012.66 1012.50 1012.38 1012.26 1012.26 1012.18 1012.10 1012.06 1012.10 1011.90 1011.66 1011.86 1011.90 1011.98 1011.90 1011.86 1011.74 1011.70 1011.62 1011.58 1011.58 1011.58 1011.58 1011.58 1011.58 1011.58 1011.66 1011.70 1011.70 1011.74 1011.94 1012.06 1012.10 1012.06 1012.02 1011.58 1011.66 1011.86 1012.06 1011.90 1011.86 1012.10 1011.98 1012.10 1012.02 1011.98 1012.02 1011.98 1011.94 1011.86 1011.82 1011.82 1011.94 1012.06 1012.06 1012.18 1012.38 1012.58 1012.74 1013.02 1013.22 1013.46 1013.74 1013.94 1014.14 1014.46 1014.90
1013.54 1013.34 1013.14 1012.98 1012.86 1012.62 1012.34 1012.06 1011.78 1011.58 1011.38 1011.30 1011.38 1011.42 1011.42 1011.26 1011.02 1011.14 1011.38 1011.34 1011.38 1011.42 1011.42 1011.42 1011.46 1011.42 1011.42 1011.42 1011.42 1011.46 1011.46 1011.46 1011.42 1011.38 1011.50 1011.58 1011.46 1011.58 1011.78 1011.82 1011.90 1011.78 1011.38 1011.38 1011.50 1011.74 1011.74 1011.70 1011.90 1011.94 1012.10 1012.14 1012.06 1011.94 1012.02 1012.06 1011.98 1011.86 1011.86 1011.86 1011.98 1012.14 1012.26 1012.50 1012.70 1012.90 1013.02 1013.18 1013.38 1013.66 1013.86 1014.10 1014.34 1014.70
1013.58 1013.18 1012.86 1012.66 1012.38 1012.14 1011.86 1011.62 1011.34 1011.06 1010.86 1010.74 1010.78 1010.78 1010.66 1010.58 1010.54 1010.54 1010.66 1010.90 1011.02 1011.02 1011.02 1011.06 1011.14 1011.10 1011.06 1011.10 1011.18 1011.18 1011.22 1011.18 1011.22 1011.18 1011.22 1011.30 1011.34 1011.30 1011.22 1011.26 1011.46 1011.58 1011.22 1011.06 1011.26 1011.46 1011.46 1011.66 1011.66 1011.78 1012.02 1012.14 1012.22 1012.14 1012.02 1012.14 1012.22 1012.02 1011.94 1011.94 1012.02 1012.18 1012.30 1012.62 1012.86 1013.10 1013.30 1013.38 1013.50 1013.70 1013.94 1014.02 1014.26 1014.46
1013.50 1013.14 1012.78 1012.34 1011.98 1011.70 1011.38 1011.10 1010.86 1010.62 1010.42 1010.34 1010.30 1010.26 1010.18 1010.14 1010.18 1010.26 1010.34 1010.50 1010.70 1010.78 1010.74 1010.74 1010.74 1010.66 1010.70 1010.70 1010.70 1010.70 1010.78 1010.74 1010.78 1010.86 1010.90 1010.94 1010.98 1011.02 1011.14 1011.14 1011.10 1010.98 1010.98 1011.18 1011.10 1011.22 1011.30 1011.34 1011.42 1011.46 1011.70 1011.98 1012.14 1012.42 1012.30 1012.06 1012.06 1012.22 1012.18 1012.22 1012.22 1012.34 1012.46 1012.62 1012.98 1013.26 1013.50 1013.70 1013.82 1013.98 1014.18 1014.30 1014.38 1014.42
1013.22 1012.86 1012.54 1012.14 1011.70 1011.34 1011.06 1010.82 1010.58 1010.34 1010.22 1010.10 1009.98 1009.90 1009.82 1009.78 1009.82 1009.94 1010.02 1010.06 1010.10 1010.22 1010.30 1010.38 1010.38 1010.30 1010.26 1010.26 1010.26 1010.18 1010.14 1010.18 1010.30 1010.42 1010.58 1010.66 1010.78 1010.98 1011.14 1011.18 1011.18 1011.22 1011.22 1011.10 1011.06 1011.18 1011.34 1011.30 1011.42 1011.46 1011.50 1011.78 1012.02 1012.14 1012.22 1012.70 1012.50 1012.34 1012.46 1012.74 1012.66 1012.70 1012.74 1012.86 1013.10 1013.38 1013.66 1013.90 1014.10 1014.22 1014.34 1014.42 1014.50 1014.46
1012.90 1012.46 1011.94 1011.58 1011.30 1011.14 1010.90 1010.62 1010.38 1010.18 1009.98 1009.86 1009.74 1009.66 1009.62 1009.62 1009.62 1009.62 1009.70 1009.70 1009.74 1009.78 1009.82 1009.86 1009.82 1009.82 1009.82 1009.86 1009.78 1009.78 1009.86 1009.90 1010.10 1010.30 1010.46 1010.74 1011.18 1011.26 1011.10 1011.22 1011.26 1011.30 1011.34 1011.34 1011.22 1011.18 1011.22 1011.22 1011.22 1011.46 1011.66 1011.78 1011.86 1012.14 1012.18 1012.38 1012.54 1012.62 1012.70 1012.62 1012.78 1013.14 1013.18 1013.14 1013.34 1013.66 1014.02 1014.18 1014.22 1014.22 1014.30 1014.38 1014.50 1014.50
1012.54 1012.14 1011.90 1011.74 1011.54 1011.34 1011.10 1010.86 1010.70 1010.38 1009.98 1009.78 1009.66 1009.54 1009.38 1009.30 1009.30 1009.34 1009.38 1009.42 1009.42 1009.38 1009.34 1009.34 1009.38 1009.38 1009.46 1009.54 1009.50 1009.62 1009.78 1009.86 1009.90 1009.98 1010.22 1010.58 1010.86 1011.10 1010.86 1010.94 1011.14 1011.38 1011.46 1011.46 1011.42 1011.34 1011.14 1011.06 1011.14 1011.34 1011.54 1011.82 1011.90 1012.02 1012.38 1012.46 1012.74 1012.98 1012.98 1012.94 1013.30 1013.42 1013.54 1013.50 1013.62 1013.82 1013.98 1014.14 1014.22 1014.30 1014.46 1014.50 1014.58 1014.58
1012.54 1012.30 1012.14 1011.98 1011.78 1011.58 1011.34 1011.14 1010.94 1010.74 1010.34 1010.02 1009.94 1009.86 1009.70 1009.46 1009.22 1009.02 1008.98 1008.98 1009.02 1009.02 1008.98 1008.90 1008.90 1008.94 1009.14 1009.26 1009.38 1009.54 1009.66 1009.70 1009.70 1009.74 1009.90 1010.22 1010.54 1010.78 1010.86 1010.82 1011.14 1011.18 1011.50 1011.50 1011.50 1011.54 1011.38 1011.14 1011.18 1011.18 1011.38 1011.86 1012.02 1012.10 1012.38 1012.38 1012.74 1013.10 1013.34 1013.38 1013.10 1012.86 1013.54 1013.74 1013.70 1013.78 1013.90 1014.10 1014.30 1014.50 1014.70 1014.78 1014.86 1014.86
1012.62 1012.42 1012.26 1012.10 1011.90 1011.74 1011.58 1011.34 1011.18 1010.94 1010.70 1010.50 1010.34 1010.14 1009.90 1009.70 1009.54 1009.26 1008.90 1008.70 1008.70 1008.62 1008.58 1008.58 1008.62 1008.78 1009.02 1009.18 1009.18 1009.30 1009.46 1009.46 1009.50 1009.62 1009.70 1009.82 1010.22 1010.50 1010.74 1010.94 1011.10 1011.30 1011.50 1011.54 1011.50 1011.62 1011.66 1011.46 1011.34 1011.34 1011.22 1011.38 1011.62 1012.34 1012.58 1012.66 1012.66 1013.02 1013.38 1013.70 1013.58 1013.70 1013.66 1013.62 1013.82 1014.06 1014.18 1014.26 1014.46 1014.74 1014.94 1014.94 1015.02 1015.18
1012.74 1012.54 1012.38 1012.22 1012.10 1012.02 1011.82 1011.62 1011.42 1011.22 1010.94 1010.70 1010.50 1010.34 1010.06 1009.82 1009.66 1009.46 1009.26 1008.86 1008.42 1008.34 1008.50 1008.50 1008.50 1008.62 1008.78 1008.86 1008.98 1009.14 1009.26 1009.34 1009.34 1009.46 1009.58 1009.70 1009.94 1010.30 1010.38 1010.42 1010.86 1011.14 1011.26 1011.50 1011.66 1011.78 1011.86 1011.70 1011.66 1011.66 1011.66 1011.74 1011.82 1011.94 1012.18 1012.78 1013.18 1013.18 1013.14 1013.54 1013.54 1013.62 1014.02 1014.06 1013.98 1014.18 1014.38 1014.46 1014.78 1014.98 1015.14 1015.34 1015.46 1015.46
1013.10 1012.94 1012.86 1012.78 1012.62 1012.38 1012.14 1011.86 1011.62 1011.46 1011.26 1011.06 1010.78 1010.54 1010.22 1009.90 1009.70 1009.50 1009.26 1008.82 1008.30 1008.14 1008.10 1008.14 1008.30 1008.42 1008.54 1008.66 1008.82 1008.98 1009.02 1009.22 1009.30 1009.26 1009.34 1009.66 1009.78 1010.14 1010.30 1010.50 1010.94 1011.18 1011.26 1011.50 1011.70 1011.90 1011.98 1011.94 1011.66 1011.90 1011.94 1012.14 1012.30 1012.42 1012.30 1011.90 1012.74 1013.42 1013.50 1013.58 1013.50 1013.42 1013.98 1014.30 1014.22 1014.30 1014.26 1014.42 1014.70 1014.98 1015.14 1015.34 1015.58 1015.70
1013.62 1013.50 1013.30 1013.22 1013.02 1012.70 1012.46 1012.22 1011.98 1011.86 1011.62 1011.38 1011.14 1010.78 1010.50 1010.18 1009.94 1009.66 1009.38 1008.98 1008.46 1007.90 1007.90 1008.02 1008.10 1008.18 1008.30 1008.42 1008.62 1008.70 1008.78 1009.02 1009.18 1009.30 1009.38 1009.58 1009.78 1009.86 1010.06 1010.38 1010.86 1011.18 1011.30 1011.62 1011.78 1012.06 1012.10 1012.06 1011.74 1011.94 1012.22 1012.18 1012.14 1012.38 1012.54 1012.66 1012.74 1013.38 1013.74 1013.78 1013.66 1013.62 1014.06 1014.54 1014.46 1014.54 1014.50 1014.66 1014.70 1014.74 1015.26 1015.58 1015.54 1015.70
1014.14 1014.02 1013.78 1013.58 1013.54 1013.30 1013.02 1012.78 1012.42 1012.18 1011.94 1011.66 1011.38 1011.10 1010.78 1010.46 1010.14 1009.82 1009.46 1008.98 1008.58 1007.90 1007.66 1007.74 1007.90 1007.98 1008.06 1008.22 1008.34 1008.42 1008.62 1008.86 1009.02 1009.18 1009.46 1009.62 1009.74 1009.86 1010.02 1010.18 1010.62 1011.02 1011.30 1011.46 1011.78 1012.14 1012.18 1012.06 1011.90 1011.82 1012.10 1012.54 1012.66 1012.74 1012.42 1012.86 1012.94 1013.02 1012.86 1013.18 1013.70 1013.54 1014.10 1014.78 1014.98 1015.02 1014.94 1014.94 1015.10 1014.86 1014.86 1014.82 1015.06 1015.70
1014.42 1014.46 1014.22 1013.98 1013.90 1013.70 1013.54 1013.34 1012.98 1012.58 1012.34 1012.02 1011.70 1011.42 1011.10 1010.86 1010.42 1010.06 1009.62 1009.14 1008.74 1008.26 1007.74 1007.54 1007.58 1007.70 1007.86 1007.98 1008.10 1008.26 1008.50 1008.70 1008.94 1009.14 1009.30 1009.54 1009.66 1009.86 1010.06 1010.30 1010.54 1010.90 1011.26 1011.46 1011.78 1012.10 1012.14 1012.06 1011.98 1011.94 1012.14 1012.54 1012.82 1012.78 1012.78 1013.14 1013.22 1013.30 1013.10 1012.98 1013.62 1014.02 1014.02 1014.34 1014.42 1014.38 1015.10 1015.22 1015.06 1014.98 1014.78 1015.14 1015.18 1016.06
1014.70 1014.66 1014.62 1014.42 1014.30 1014.14 1013.90 1013.78 1013.50 1013.14 1012.78 1012.38 1012.06 1011.70 1011.38 1011.14 1010.78 1010.30 1009.78 1009.34 1009.14 1008.94 1008.54 1008.18 1007.98 1007.74 1007.74 1007.90 1008.02 1008.26 1008.46 1008.62 1008.86 1009.18 1009.38 1009.54 1009.70 1009.90 1010.02 1010.26 1010.54 1010.90 1011.34 1011.86 1012.02 1012.14 1012.18 1012.10 1012.02 1011.90 1011.86 1012.10 1012.34 1012.86 1013.14 1013.42 1013.26 1013.26 1013.58 1013.42 1013.38 1014.14 1014.58 1014.38 1014.34 1014.26 1014.62 1015.46 1015.10 1015.62 1015.86 1015.34 1015.46 1016.14
1014.94 1014.90 1014.98 1014.90 1014.78 1014.70 1014.42 1014.26 1014.02 1013.74 1013.34 1012.98 1012.58 1012.18 1011.82 1011.58 1011.22 1010.78 1010.34 1009.98 1009.62 1009.38 1009.10 1008.82 1008.66 1008.46 1008.14 1008.02 1008.02 1008.22 1008.50 1008.74 1008.98 1009.18 1009.38 1009.58 1009.74 1009.90 1010.10 1010.38 1010.90 1011.42 1011.74 1012.06 1012.26 1012.30 1012.30 1012.22 1012.22 1012.26 1012.10 1011.90 1011.82 1012.10 1012.62 1012.86 1013.14 1013.42 1013.74 1013.66 1013.70 1014.18 1014.50 1014.22 1014.14 1014.78 1015.02 1014.90 1015.58 1016.10 1016.06 1016.18 1016.06 1016.02
1015.26 1015.22 1015.42 1015.42 1015.30 1015.18 1015.06 1014.90 1014.66 1014.30 1014.02 1013.74 1013.26 1012.70 1012.30 1012.10 1011.82 1011.50 1011.18 1010.82 1010.38 1009.98 1009.70 1009.50 1009.22 1008.94 1008.82 1008.66 1008.46 1008.46 1008.58 1008.70 1008.94 1009.26 1009.46 1009.66 1009.82 1009.94 1010.26 1010.62 1011.02 1011.50 1011.82 1012.06 1012.18 1012.34 1012.30 1012.30 1012.34 1012.38 1012.38 1012.50 1012.66 1012.82 1012.90 1013.14 1013.66 1014.06 1013.98 1013.90 1013.90 1013.78 1014.06 1014.58 1014.38 1014.78 1015.06 1015.78 1016.02 1015.78 1015.70 1016.10 1015.74 1015.94
1015.90 1015.82 1015.90 1015.82 1015.74 1015.70 1015.66 1015.54 1015.38 1014.98 1014.66 1014.34 1013.86 1013.22 1012.82 1012.54 1012.30 1012.06 1011.86 1011.58 1011.26 1010.78 1010.46 1010.26 1009.98 1009.78 1009.62 1009.42 1009.18 1008.94 1009.10 1009.42 1009.54 1009.66 1009.74 1009.78 1009.94 1010.18 1010.50 1010.78 1011.26 1011.42 1011.62 1012.10 1012.26 1012.42 1012.50 1012.82 1013.10 1013.14 1013.02 1013.14 1013.10 1012.98 1012.86 1012.90 1012.90 1013.42 1013.70 1014.02 1014.14 1014.14 1014.22 1014.34 1014.42 1014.70 1014.66 1015.62 1015.70 1015.54 1015.58 1015.82 1016.02 1016.26
1016.50 1016.46 1016.34 1016.18 1016.10 1016.10 1016.06 1015.94 1015.74 1015.42 1015.14 1014.94 1014.46 1013.90 1013.30 1012.94 1012.78 1012.58 1012.42 1012.14 1011.86 1011.50 1011.18 1011.02 1010.86 1010.58 1010.38 1010.14 1009.90 1009.70 1009.62 1009.82 1009.98 1010.10 1010.22 1010.22 1010.34 1010.62 1010.74 1010.74 1011.06 1011.50 1011.38 1011.78 1012.38 1012.62 1013.26 1013.42 1013.34 1013.22 1013.18 1013.10 1012.98 1012.70 1012.86 1012.94 1013.18 1013.70 1014.06 1014.22 1014.42 1014.42 1014.30 1014.34 1014.50 1014.58 1014.74 1015.02 1015.46 1015.66 1016.06 1016.70 1016.98 1016.62
1016.78 1016.74 1016.66 1016.50 1016.38 1016.34 1016.30 1016.22 1016.02 1015.78 1015.54 1015.38 1015.02 1014.50 1013.90 1013.50 1013.34 1013.26 1013.18 1012.98 1012.70 1012.34 1012.14 1011.86 1011.58 1011.30 1011.10 1010.86 1010.70 1010.46 1010.30 1010.34 1010.42 1010.58 1010.70 1010.70 1010.66 1010.70 1010.86 1010.98 1011.14 1011.42 1011.62 1012.30 1013.02 1013.38 1013.50 1013.46 1013.46 1013.34 1013.38 1013.34 1013.46 1013.38 1013.26 1013.70 1013.82 1014.06 1014.26 1014.30 1014.38 1014.74 1014.74 1014.66 1014.58 1014.58 1014.70 1014.82 1014.90 1014.98 1015.18 1015.30 1015.82 1015.46
1016.98 1016.94 1016.86 1016.74 1016.66 1016.54 1016.46 1016.38 1016.26 1016.06 1015.86 1015.70 1015.42 1015.06 1014.54 1014.14 1014.06 1014.10 1014.06 1013.86 1013.62 1013.34 1013.06 1012.66 1012.30 1011.90 1011.66 1011.46 1011.18 1011.06 1011.10 1011.06 1010.98 1010.94 1011.06 1011.14 1011.14 1011.18 1011.30 1011.62 1011.86 1012.30 1012.78 1013.10 1013.38 1013.62 1013.78 1013.78 1013.90 1013.78 1013.54 1013.66 1013.94 1013.82 1013.86 1014.18 1014.34 1014.42 1014.46 1014.70 1014.82 1014.66 1014.62 1014.94 1014.90 1014.82 1014.86 1014.98 1015.02 1015.10 1015.18 1015.26 1015.26 1015.22
1017.10 1017.06 1016.98 1016.90 1016.82 1016.70 1016.58 1016.50 1016.42 1016.26 1016.10 1015.94 1015.70 1015.50 1015.18 1014.86 1014.74 1014.70 1014.66 1014.50 1014.34 1014.06 1013.70 1013.46 1013.06 1012.74 1012.34 1012.10 1011.78 1011.54 1011.66 1011.58 1011.50 1011.62 1011.62 1011.62 1011.66 1011.70 1011.86 1012.06 1012.50 1012.86 1013.22 1013.46 1013.50 1013.82 1014.02 1014.06 1014.14 1014.18 1014.22 1014.38 1014.38 1014.30 1014.46 1014.46 1014.54 1014.74 1014.86 1014.82 1014.66 1014.86 1015.10 1015.06 1014.74 1014.78 1015.06 1015.10 1015.14 1015.10 1015.10 1015.10 1015.10 1015.14
Wind_Speed
8 7 7 7 7 6 6 6 6 6 6 6 7 8 9 8 12 11 11 12 11 9 6 8 7 7 9 7 7 7 6 6 8 6 7 7 8 10 13 16 19 22 25 25 22 20 19 18 18 19 21 20 19 19 20 19 19 19 18 17 14 11 10 12 18 21 19 21 23 21 21 25 25 24
6 7 7 6 7 6 6 5 6 7 6 8 8 7 7 7 9 10 13 13 11 11 7 7 9 8 9 9 9 7 8 9 11 7 7 7 7 11 15 16 16 19 22 21 20 19 19 19 21 22 21 22 23 23 22 21 20 20 19 18 18 16 13 12 15 20 21 21 21 18 16 20 24 23
7 6 8 8 8 7 7 8 7 7 7 7 7 7 8 8 9 10 11 14 10 9 12 9 9 9 10 11 10 10 10 11 12 10 8 8 10 13 10 13 16 19 22 21 19 20 19 19 19 20 21 22 23 24 27 25 22 22 22 19 19 18 16 14 15 18 20 20 19 20 21 17 24 24
7 8 8 8 7 6 5 7 8 8 7 7 7 7 8 9 11 10 10 14 16 9 10 12 12 14 14 14 14 14 12 11 15 9 9 9 13 10 7 9 12 15 20 20 20 21 23 24 23 21 21 22 23 24 24 26 23 21 23 21 20 20 18 16 16 17 20 24 24 23 23 20 18 23
9 8 8 8 9 8 8 7 6 7 7 7 8 9 10 10 10 10 10 12 14 12 8 11 11 11 11 14 13 15 13 13 11 11 9 10 9 9 8 7 10 12 14 17 20 21 22 22 22 22 22 23 24 25 25 23 26 27 24 21 20 20 17 15 18 18 20 22 24 26 21 20 21 20
8 8 9 9 8 8 8 8 9 9 9 9 9 8 8 9 10 11 13 12 13 14 9 11 8 8 5 10 9 11 13 14 12 12 10 9 9 9 9 8 8 11 13 14 19 22 24 23 22 24 23 24 25 27 24 23 24 25 23 21 20 20 19 20 20 19 18 22 25 25 25 21 22 23
9 10 10 10 9 7 8 8 9 9 11 10 11 11 10 11 11 12 12 13 12 11 9 7 10 7 8 9 11 11 10 11 11 12 11 9 8 8 8 8 7 10 13 17 19 20 20 19 19 19 21 21 23 26 28 25 22 20 22 21 20 20 20 20 20 19 20 20 24 26 25 25 26 27
11 11 11 10 9 8 9 10 10 10 10 10 10 10 10 10 12 11 11 12 11 11 12 9 9 9 9 10 11 10 9 11 11 11 11 11 10 9 8 7 7 8 16 19 19 18 18 17 18 20 20 21 22 23 23 24 24 21 20 21 20 20 20 19 20 21 20 20 20 22 24 23 27 29
13 12 11 11 10 10 10 7 7 6 8 9 10 11 10 10 9 8 9 10 10 11 13 13 11 8 9 10 12 11 11 11 11 10 11 10 11 12 11 9 9 10 13 17 19 17 17 17 18 19 20 21 22 22 22 23 24 23 21 20 20 21 21 21 21 21 19 19 19 22 25 27 27 26
9 7 7 8 6 6 6 7 7 8 8 8 9 9 9 9 8 9 10 11 11 11 13 13 13 10 10 11 11 12 11 11 12 11 11 11 10 10 9 8 6 7 7 7 9 11 13 15 17 18 18 20 20 20 21 21 22 23 22 20 20 21 22 21 21 20 20 19 18 20 23 25 27 29
10 10 9 8 7 8 8 8 9 10 10 10 11 11 11 9 9 9 9 11 12 13 13 12 13 13 11 11 12 12 11 11 11 12 11 11 9 9 9 10 7 6 7 7 10 9 9 10 10 13 17 18 20 20 19 20 22 22 22 21 21 22 22 22 21 20 19 19 18 18 18 18 19 23
10 10 11 11 10 10 10 10 11 11 12 11 11 10 9 9 10 10 10 10 11 12 12 11 11 10 11 9 10 11 9 7 9 9 10 13 12 11 8 9 10 6 6 7 6 6 7 8 11 14 15 17 19 19 19 20 22 24 23 22 21 22 23 24 23 21 19 18 19 19 18 17 16 18
10 9 10 11 11 13 18 23 21 19 18 12 10 12 10 11 11 11 11 12 11 10 12 11 11 12 12 11 9 9 8 10 12 12 10 10 11 9 8 7 7 6 6 6 6 5 5 6 7 6 6 8 13 15 19 16 21 23 23 23 21 21 23 24 25 23 22 20 19 20 20 19 18 17
11 12 12 12 20 22 22 22 23 24 25 26 19 14 11 12 12 12 12 12 10 10 11 10 11 10 11 9 7 8 10 11 11 11 8 9 11 10 9 7 6 5 6 6 7 7 5 6 6 6 7 8 9 8 9 10 12 15 20 22 23 22 22 22 23 24 23 22 21 20 20 21 21 19
11 11 11 11 14 17 19 19 25 25 26 25 27 29 28 21 14 10 11 12 9 10 10 10 10 8 8 8 5 7 9 10 12 12 11 10 10 8 8 11 5 7 7 7 6 8 5 6 8 8 9 9 9 8 9 12 15 17 19 20 22 23 23 22 21 21 22 23 22 22 22 21 20 20
11 11 10 10 9 10 12 13 14 19 25 27 28 29 28 28 29 27 18 14 12 12 10 10 10 10 10 9 7 8 7 11 9 8 7 9 9 9 9 9 10 4 10 7 8 9 5 7 8 9 9 10 10 11 16 21 21 20 19 17 18 20 22 22 22 22 22 23 23 23 22 22 21 19
11 11 10 10 11 11 19 17 13 14 16 23 29 29 29 29 30 28 30 29 19 13 13 12 11 10 8 9 9 5 4 6 6 5 6 7 8 8 9 10 9 2 5 7 8 9 8 6 8 10 10 9 9 11 16 19 18 19 18 17 13 13 17 19 19 19 20 20 21 22 23 22 22 22
12 12 11 11 11 9 10 11 13 12 11 11 11 12 13 14 20 26 28 27 29 24 16 14 14 11 7 9 10 8 5 5 7 6 7 7 7 8 9 7 4 2 5 8 7 8 8 6 7 8 10 9 9 10 13 20 19 18 18 17 16 13 11 12 15 18 18 19 19 19 19 19 20 20
10 10 10 9 10 9 8 8 10 11 13 14 13 13 14 14 12 11 12 14 14 14 13 12 13 11 9 10 10 9 8 7 8 8 8 7 8 7 1 0 1 2 4 7 6 8 8 5 7 8 10 7 8 8 12 20 20 20 18 19 19 17 13 11 10 13 15 16 16 15 15 16 15 15
10 10 11 10 11 12 13 18 24 20 14 12 12 13 12 9 8 9 12 16 15 13 11 11 11 10 10 12 10 9 9 8 8 5 3 2 3 4 5 6 3 4 4 6 7 6 5 2 7 8 6 4 7 7 7 13 21 20 20 21 21 20 19 16 14 11 10 11 13 14 13 11 12 12
10 10 11 11 11 12 13 18 23 22 19 12 13 13 11 8 7 7 7 15 20 21 21 20 20 20 20 21 22 21 23 13 6 4 4 5 5 5 5 5 3 6 3 3 6 3 3 3 5 6 3 5 5 5 5 6 15 20 19 19 20 19 18 19 17 16 14 12 10 10 10 11 11 11
9 11 18 17 13 13 14 20 24 24 18 12 12 11 11 10 8 7 6 4 7 16 19 20 21 20 21 21 21 20 19 17 8 6 7 5 4 5 4 5 5 2 0 3 4 3 4 2 4 5 2 3 2 3 4 4 6 14 16 19 17 16 16 15 17 17 15 14 13 11 10 8 7 5
9 10 12 20 19 16 17 24 25 25 19 12 12 11 10 10 10 10 7 6 7 6 6 7 8 9 10 9 8 8 12 11 10 8 8 4 6 6 5 4 1 1 4 5 7 6 3 4 5 4 2 1 3 2 3 3 3 4 4 6 8 10 13 15 14 15 16 15 12 14 11 10 8 4
7 8 9 12 18 24 26 26 26 25 26 17 12 11 9 9 12 9 6 7 7 7 6 7 6 7 6 7 5 5 6 6 6 8 6 6 7 7 7 6 5 4 3 1 8 8 2 3 4 2 2 1 2 1 1 4 3 2 3 5 4 9 12 12 10 14 16 17 18 15 12 11 9 4
6 5 6 5 10 16 17 18 20 20 21 20 14 11 10 10 11 10 7 9 10 7 6 6 7 6 5 5 5 5 6 6 6 7 6 5 6 8 7 6 6 6 6 4 10 5 4 4 4 2 0 1 1 2 1 0 1 2 2 4 5 4 4 4 3 5 9 15 16 17 16 14 13 9
6 7 6 5 10 15 16 17 18 20 19 17 7 9 15 19 19 13 9 7 7 7 6 6 6 5 5 5 5 5 6 7 7 7 7 7 6 7 7 8 7 4 6 4 13 7 4 2 5 4 2 2 2 1 1 1 1 2 2 3 3 4 5 5 5 4 3 2 3 6 7 13 9 13
7 7 8 8 13 16 17 18 18 18 19 15 8 13 14 14 16 13 8 7 7 6 7 6 6 6 5 5 5 5 6 7 7 7 7 7 8 5 3 3 4 5 4 1 7 6 4 2 4 6 4 2 4 1 1 1 1 2 4 3 4 4 4 5 5 4 4 4 4 7 6 6 3 1
7 7 7 9 17 17 17 17 17 17 16 11 15 16 17 16 12 6 6 7 7 8 8 7 7 7 6 5 5 6 6 6 7 8 6 7 6 7 4 3 3 2 2 1 3 5 3 2 4 3 5 7 6 5 4 1 1 2 3 3 4 4 4 5 5 5 4 4 4 4 4 3 3 2
7 11 16 16 14 14 13 14 13 12 12 14 13 13 14 11 6 6 5 5 6 8 8 8 8 8 7 7 6 5 5 4 2 3 4 1 5 1 5 4 4 4 3 4 1 2 4 3 5 4 4 3 5 1 3 3 2 2 2 4 3 3 3 4 5 5 4 4 4 3 4 3 3 2
16 14 12 12 11 10 9 7 6 6 6 7 8 8 8 5 6 6 6 5 6 7 7 8 9 8 7 6 6 5 4 4 6 6 5 5 4 4 4 4 3 4 4 4 4 3 1 4 4 6 5 4 3 5 3 5 3 1 1 3 4 2 3 3 5 5 5 4 4 4 3 3 3 3
6 7 8 7 9 8 10 9 8 7 8 6 6 5 4 5 4 4 6 6 6 6 6 7 8 7 6 4 3 4 5 6 5 5 6 6 6 6 3 5 2 2 4 3 4 4 3 1 3 5 6 4 3 2 4 4 5 5 1 2 3 4 2 3 4 4 4 4 4 4 4 4 4 3
5 5 6 6 5 5 5 6 5 5 5 5 5 5 5 4 5 6 7 7 6 7 6 6 5 4 4 5 6 5 5 6 5 5 6 7 7 7 6 4 4 2 2 3 3 4 4 3 3 2 4 6 6 2 4 2 5 6 5 1 3 2 3 5 5 3 3 5 5 4 2 3 4 3
5 4 5 6 7 6 7 6 6 6 6 5 5 6 5 5 5 4 3 4 6 6 5 6 6 5 5 6 6 5 5 5 5 5 5 5 6 6 6 7 5 5 5 2 2 4 4 4 6 5 5 5 2 7 8 4 1 4 7 5 3 3 1 2 5 5 3 6 4 4 3 3 3 3
4 5 5 5 5 6 6 7 7 7 7 6 6 6 7 6 6 5 5 5 6 6 7 7 6 6 6 6 5 5 5 5 5 6 7 5 6 7 6 6 5 3 4 4 3 1 2 2 5 6 7 6 6 5 2 4 6 5 3 5 5 3 1 1 3 3 4 3 4 4 2 0 1 2
5 5 5 6 6 6 6 6 7 7 7 6 6 6 6 5 6 6 5 5 5 3 5 5 5 5 6 6 5 6 5 6 5 5 4 5 5 6 6 6 5 5 5 4 4 3 2 2 4 6 5 4 3 3 6 4 6 6 5 3 3 5 4 1 2 2 3 2 4 5 1 1 2 2
5 5 4 5 6 6 6 7 6 6 6 7 7 6 6 6 6 6 6 7 6 3 5 5 5 6 5 5 6 5 6 6 6 5 5 5 5 5 5 5 5 4 5 5 5 3 3 4 4 7 6 4 4 2 2 5 4 5 7 3 0 3 3 5 3 3 4 3 1 4 3 3 4 1
5 4 4 5 5 5 6 6 6 6 6 6 7 6 7 7 7 7 8 7 6 5 1 3 5 5 5 6 5 5 6 7 6 6 6 5 5 5 5 4 5 5 5 4 4 4 3 4 4 5 6 6 6 6 3 4 4 2 5 6 2 0 4 3 3 2 2 2 1 2 3 2 1 1
4 4 5 5 5 5 5 5 6 5 6 7 7 7 7 7 7 7 7 7 7 6 5 4 2 2 5 4 6 6 5 5 6 6 4 5 5 5 5 5 5 5 4 3 4 4 3 3 5 5 6 7 6 5 4 1 1 2 2 5 6 3 2 5 2 3 1 1 1 0 1 1 2 1
4 5 5 5 5 6 6 6 6 6 6 6 7 7 7 7 7 8 8 8 7 7 6 6 5 4 3 4 5 6 6 6 6 5 5 5 5 4 4 5 5 4 5 4 3 3 3 3 3 3 2 5 7 7 6 5 2 1 4 1 7 7 4 6 6 2 3 2 1 1 1 2 2 3
4 5 5 5 5 5 5 6 6 6 6 7 6 6 7 7 7 6 7 7 7 7 6 6 6 6 6 4 3 5 5 6 6 6 6 5 4 5 5 5 6 6 5 5 5 3 3 3 3 3 3 2 2 2 5 5 2 0 2 2 6 7 6 6 5 6 2 1 2 2 2 3 2 5
5 4 5 5 4 5 5 5 6 6 6 6 6 6 6 6 6 6 6 7 6 7 7 7 7 7 6 5 4 4 6 4 4 4 4 4 4 4 5 6 5 5 6 5 4 4 3 1 1 2 4 4 2 2 4 4 2 0 1 2 6 2 7 7 5 6 3 4 5 5 4 3 3 1
3 4 4 4 4 5 5 5 5 5 5 6 6 6 6 6 6 9 7 9 8 7 6 6 6 6 6 6 5 4 5 5 4 4 3 4 5 5 4 5 5 4 5 6 5 4 2 1 0 2 3 3 4 3 4 5 3 2 0 2 3 6 4 6 7 5 7 8 6 3 2 1 2 2
3 4 4 4 4 4 4 4 5 5 5 5 5 6 5 5 6 7 7 7 7 7 7 6 6 6 6 5 5 4 4 5 4 4 4 3 4 5 4 4 4 4 4 4 4 3 2 3 2 3 3 3 1 2 4 3 3 3 1 1 1 2 3 6 3 6 8 9 6 5 5 5 5 2
4 3 4 4 3 4 4 4 5 5 5 5 5 5 5 5 6 6 6 6 6 6 5 6 6 6 6 5 5 5 5 4 4 4 4 3 3 3 4 4 5 5 5 5 5 4 4 4 4 2 4 2 1 3 5 5 3 2 2 0 1 1 1 3 2 4 2 2 5 6 6 7 6 5
3 3 3 3 4 4 3 4 4 4 5 5 5 5 5 4 5 5 5 6 6 6 6 6 6 6 6 6 5 6 5 4 5 4 4 4 4 4 5 5 5 6 5 4 6 4 3 3 2 4 4 2 1 2 3 3 3 2 0 1 0 1 1 2 1 1 3 4 5 4 6 9 10 11
Wind_Direction
269 261 258 259 261 254 254 254 248 246 248 253 255 254 262 271 281 291 289 278 282 276 276 290 295 313 316 322 323 322 320 317 328 327 309 300 285 266 254 255 261 264 262 258 262 266 265 268 274 278 274 259 248 240 236 237 235 236 239 238 233 227 238 244 235 229 234 235 231 227 211 204 208 208
271 265 261 261 265 263 259 254 248 249 246 251 256 254 251 254 263 270 276 279 273 282 273 279 294 301 304 310 310 311 305 302 311 312 307 306 301 298 288 269 252 250 256 260 263 267 270 270 268 267 274 280 265 249 242 233 230 231 231 232 232 230 226 227 226 223 220 228 227 221 236 211 207 210
267 271 271 264 259 254 253 255 260 260 260 260 256 264 272 269 263 268 269 275 265 273 280 279 285 290 297 298 301 301 299 299 299 299 298 293 294 296 296 291 282 267 257 252 254 260 266 268 268 266 265 269 281 276 254 243 233 226 230 227 226 224 217 216 215 216 215 215 220 213 222 222 207 209
273 274 277 278 279 268 251 247 245 248 253 254 259 254 248 250 256 262 266 267 276 262 277 279 276 282 288 291 293 293 294 291 293 293 290 288 286 281 269 273 273 279 277 267 253 253 257 261 264 265 265 263 262 271 278 258 241 230 227 220 219 222 215 208 211 212 214 213 210 212 215 218 219 214
275 272 266 265 262 261 263 263 260 257 251 249 251 254 255 255 249 249 251 257 268 265 251 262 265 268 271 278 283 286 288 289 291 289 282 283 279 274 268 263 257 258 265 268 266 256 255 256 259 261 262 263 261 259 263 270 256 242 234 223 219 218 211 204 207 209 210 218 214 207 203 209 209 219
262 262 260 255 254 252 253 255 258 256 255 254 253 252 257 260 260 253 255 253 255 264 250 252 252 260 256 265 264 273 282 285 286 283 285 277 268 267 267 264 259 253 252 253 260 259 254 255 254 256 257 255 256 256 254 259 263 255 242 228 220 215 208 211 210 205 209 212 221 219 204 198 202 209
257 255 253 255 258 253 253 254 255 254 255 251 249 251 250 255 259 261 262 270 274 279 277 269 266 264 268 265 270 265 263 270 276 280 277 276 273 263 257 257 257 255 251 252 254 253 259 260 260 256 258 258 256 255 253 248 250 256 252 239 222 217 213 211 211 203 204 209 213 216 207 193 198 204
248 251 255 254 253 257 261 261 257 254 254 254 254 250 248 244 253 257 260 259 265 272 278 270 269 268 268 268 269 269 269 267 270 268 270 266 265 267 258 250 251 247 251 254 249 244 245 253 259 261 260 261 261 259 255 251 246 247 249 244 229 220 212 208 206 206 205 204 208 218 213 195 195 198
243 243 244 247 247 245 248 249 254 255 253 253 253 252 248 247 248 253 253 256 257 263 267 270 262 259 260 263 265 263 263 269 261 261 260 263 264 260 253 248 245 243 241 247 250 246 242 245 250 257 259 259 260 260 258 255 249 244 243 245 239 224 215 209 206 206 199 197 200 205 217 211 203 200
271 254 245 246 244 245 246 254 259 264 267 267 265 263 263 261 261 261 260 257 258 256 258 258 268 256 254 256 255 255 247 252 266 262 260 258 255 257 262 246 234 232 233 240 246 247 243 241 245 249 253 253 253 256 258 259 255 247 241 238 238 230 218 211 208 205 196 191 190 199 206 210 203 201
273 273 273 266 259 256 251 253 256 260 261 259 260 258 259 257 256 257 257 258 259 254 252 251 249 257 248 242 256 255 243 241 245 260 267 263 255 249 243 254 240 220 230 235 237 233 231 237 242 246 248 248 248 249 252 256 259 254 246 239 234 229 222 214 209 207 199 191 185 186 193 201 208 206
262 264 265 264 261 257 257 255 257 255 259 257 258 253 248 251 253 256 259 259 256 258 257 253 255 249 255 243 235 251 253 250 251 239 245 254 257 252 241 233 241 224 207 226 240 245 244 248 248 251 253 252 250 247 249 251 253 254 249 243 237 230 222 217 211 208 206 198 188 180 183 188 190 192
250 254 255 256 253 253 257 258 256 254 252 249 249 250 241 246 247 248 249 250 250 250 252 254 253 255 252 248 239 242 244 237 240 243 227 243 248 252 248 248 237 220 210 220 221 231 215 232 236 236 246 250 254 251 245 245 246 248 245 242 238 232 224 218 213 209 207 204 199 190 186 188 189 187
247 247 248 249 254 257 258 258 256 254 253 251 248 246 241 239 240 242 247 248 247 249 250 253 256 247 245 250 246 247 249 248 250 251 238 235 242 241 246 256 228 201 204 208 225 229 213 212 242 232 243 248 244 244 243 237 236 240 243 242 237 231 225 219 215 210 208 206 203 200 195 192 192 191
241 240 241 243 246 248 251 252 254 255 255 254 252 252 251 247 238 234 241 246 246 254 258 261 257 252 262 261 255 254 265 263 245 233 226 230 240 236 234 245 240 200 176 210 225 241 206 187 231 240 241 244 243 236 238 238 240 239 238 239 237 231 226 221 216 212 210 208 205 203 201 197 195 196
238 241 240 238 236 236 240 245 249 252 254 254 254 254 254 253 251 247 243 247 252 245 248 249 249 256 259 267 268 274 281 273 250 231 219 223 226 225 226 235 240 208 189 197 222 244 220 188 221 241 240 239 237 236 238 237 238 239 238 235 232 228 225 225 220 215 212 211 209 204 202 200 195 195
236 240 242 242 240 238 247 250 249 250 251 253 252 253 254 255 253 251 248 246 245 249 252 254 254 246 252 262 261 254 231 243 241 218 208 216 224 223 228 232 239 251 166 186 219 234 231 195 210 231 238 237 235 240 241 237 235 239 240 228 210 203 209 212 214 213 212 211 211 207 203 201 199 194
228 232 238 245 245 239 235 240 244 249 258 266 264 256 252 251 249 249 247 245 246 247 247 250 253 249 232 248 262 267 269 245 236 227 227 218 225 229 234 245 252 217 176 191 206 238 237 203 207 226 236 231 233 233 236 235 231 233 242 234 215 199 181 190 198 202 202 205 204 205 204 202 202 199
234 238 245 250 260 262 255 246 254 261 263 260 258 259 260 252 241 234 233 236 238 243 248 247 248 251 245 249 257 267 270 253 246 232 232 223 217 223 171 55 209 223 211 195 211 248 244 196 215 227 234 228 229 231 234 234 229 226 234 240 222 205 190 176 175 183 184 183 186 190 191 191 192 194
235 240 245 250 253 255 259 259 261 260 260 261 266 271 268 254 237 230 231 233 230 231 231 238 244 247 247 251 252 253 258 255 250 237 219 153 155 172 209 232 216 211 215 192 208 233 251 157 214 232 230 213 226 229 228 231 229 224 227 232 229 213 200 189 179 174 171 167 167 169 171 177 177 188
235 235 235 236 242 249 252 259 262 261 261 259 261 263 265 257 245 244 240 241 242 240 234 234 237 241 244 247 251 252 254 247 220 185 192 210 187 182 206 233 226 242 183 189 208 246 259 216 206 232 216 208 214 225 222 228 227 222 222 223 217 211 203 198 191 180 177 176 169 161 151 152 147 146
238 237 239 241 243 247 251 256 259 260 258 256 256 257 260 262 259 255 251 252 256 257 257 255 252 249 245 243 244 247 251 247 205 180 199 211 155 205 212 222 217 273 67 225 176 216 241 205 194 214 236 193 253 216 213 216 230 229 227 224 213 198 195 201 202 196 192 192 192 187 177 170 155 148
236 241 244 245 245 244 248 252 256 259 258 255 254 251 249 252 253 250 246 245 255 260 265 266 262 264 262 257 246 243 255 241 202 202 208 179 167 200 219 221 216 331 280 224 174 210 236 163 221 176 182 323 249 197 208 209 203 206 222 237 228 203 196 198 196 200 202 205 207 206 199 194 181 160
241 240 246 250 252 254 253 255 256 257 255 248 244 242 238 236 246 243 225 221 222 240 237 244 243 243 248 254 247 242 239 244 207 204 216 183 181 191 202 203 190 196 226 255 171 199 218 172 210 180 148 189 240 227 233 215 213 163 160 183 180 211 204 194 196 199 200 205 210 214 215 214 206 171
288 273 261 261 277 285 281 278 274 271 270 264 248 239 236 234 239 236 225 229 224 230 234 238 241 238 233 233 230 230 230 225 224 208 204 201 191 185 195 200 202 230 237 221 185 178 203 184 191 153 15 77 295 48 331 51 330 149 161 155 158 161 143 143 139 182 199 203 206 210 211 208 206 193
301 291 288 272 270 280 282 283 283 283 283 284 281 247 242 242 241 241 233 224 221 225 227 231 238 238 229 224 219 221 221 221 215 216 211 205 204 206 195 187 190 218 240 231 179 187 166 176 181 160 148 108 331 11 44 352 307 2 56 116 121 123 134 122 121 123 111 123 148 182 193 201 200 210
298 295 293 287 292 293 292 289 286 282 280 281 274 273 273 270 261 253 240 221 220 223 227 227 236 235 227 222 223 216 218 217 211 209 212 209 212 208 211 193 182 193 232 240 192 188 177 178 178 174 164 157 133 19 356 42 327 22 46 50 91 100 111 117 119 117 115 113 122 142 146 141 128 61
292 292 289 290 296 296 296 293 289 286 284 278 277 276 274 272 268 252 240 224 220 222 224 227 231 233 225 221 226 229 226 217 207 210 204 214 192 153 141 95 72 69 17 349 198 176 186 167 186 195 151 155 160 168 182 329 345 64 99 14 46 57 85 110 112 106 106 115 106 125 115 105 68 80
299 304 308 312 316 315 313 312 308 298 284 277 278 277 273 271 257 253 235 229 220 221 219 219 225 228 225 220 222 223 233 232 196 187 205 90 67 98 106 85 67 45 37 16 10 155 170 198 194 152 135 155 153 128 107 178 143 110 129 122 72 12 38 88 115 117 124 121 135 119 134 137 90 67
322 324 336 342 339 337 337 341 342 331 332 323 321 321 311 263 242 229 233 231 230 224 219 216 220 222 217 216 215 211 205 206 211 200 181 146 154 148 140 98 27 18 32 22 33 346 203 194 174 156 151 149 151 148 152 128 111 99 53 77 124 72 25 76 112 124 128 132 123 117 92 91 119 103
334 343 353 352 356 352 353 358 354 345 342 354 345 330 328 328 315 246 215 220 226 231 223 223 221 218 208 205 205 187 188 213 214 192 176 169 171 174 155 143 118 45 1 6 33 19 340 118 140 153 137 128 104 144 157 129 121 143 118 153 139 139 185 70 97 118 124 105 94 90 93 86 72 70
333 341 347 360 5 356 2 3 4 359 353 353 339 332 328 328 323 311 285 250 230 227 226 225 224 203 180 200 217 198 187 206 205 184 179 175 170 172 154 143 182 129 63 8 12 11 15 26 87 68 117 149 149 116 71 105 151 154 143 124 63 46 130 141 114 72 81 108 87 81 45 66 87 81
333 344 357 8 8 4 2 6 5 359 359 358 350 343 333 329 328 322 318 258 231 218 215 222 212 206 188 211 205 195 184 193 196 185 182 177 168 173 177 187 164 163 154 110 20 357 2 40 56 82 83 51 54 135 133 89 47 144 158 167 122 92 65 84 128 128 101 85 93 96 59 11 27 52
353 2 8 4 1 358 359 6 10 5 1 358 351 352 347 344 339 333 315 283 247 205 209 209 207 201 195 205 192 184 185 180 192 187 184 172 172 166 180 170 164 148 135 146 149 218 348 12 87 70 69 68 68 55 51 125 145 171 150 150 136 135 238 147 140 149 126 146 134 105 93 34 351 337
15 5 13 9 3 358 355 5 8 1 358 351 347 350 351 341 332 326 314 311 304 231 201 201 202 200 195 194 181 186 173 174 178 170 158 152 164 169 162 155 150 157 162 164 182 181 146 168 115 87 56 48 38 6 52 79 138 139 125 128 159 139 158 177 128 111 104 68 101 138 139 1 284 287
26 4 11 15 10 354 360 359 355 1 357 356 356 351 345 347 342 340 331 329 315 266 197 196 194 193 189 176 182 176 168 161 164 156 150 158 159 157 157 154 150 161 164 178 181 170 178 163 155 142 139 125 118 127 274 18 61 151 141 170 195 130 110 114 98 113 104 109 87 126 138 202 240 314
34 8 7 16 4 1 359 352 348 355 356 356 355 349 353 353 350 341 335 335 352 348 340 167 179 183 165 175 175 170 163 161 160 163 160 161 154 152 153 153 159 165 177 177 153 161 170 163 154 141 142 141 151 179 191 316 348 66 140 148 163 54 121 93 86 77 31 86 96 129 168 153 240 123
33 19 16 11 7 354 357 352 350 347 354 355 354 351 356 353 346 344 339 4 7 2 7 26 20 134 157 164 158 157 156 152 144 144 140 138 143 158 171 173 163 158 151 131 147 163 172 161 167 169 157 159 167 159 186 309 351 355 22 135 150 181 119 106 102 174 222 354 133 354 77 17 280 282
22 31 23 10 6 355 357 356 350 346 349 348 352 354 355 353 352 356 1 4 2 7 11 24 26 18 64 132 144 145 142 136 137 136 141 151 156 161 147 137 123 115 124 131 126 146 156 162 171 165 155 157 172 191 175 157 229 251 312 176 137 127 177 165 175 167 153 197 285 3 357 252 278 316
15 36 29 12 4 360 358 357 352 346 348 344 342 345 353 358 356 358 0 4 1 4 17 23 21 30 34 29 78 106 110 134 140 150 153 154 155 144 141 144 139 138 125 131 144 159 162 158 145 148 162 141 137 150 138 134 134 20 346 337 168 160 167 157 165 156 209 185 117 121 264 9 331 316
19 22 22 9 7 9 3 357 349 342 344 337 336 347 352 1 7 5 3 7 2 10 19 17 20 23 27 24 26 86 109 94 97 108 113 120 118 121 128 126 128 140 136 146 147 160 141 111 46 31 93 116 118 100 75 85 115 302 16 334 350 11 157 174 160 160 160 166 157 160 190 193 218 358
22 10 3 0 16 11 3 352 345 342 347 345 343 344 347 5 13 15 13 12 12 14 18 17 13 19 21 21 25 38 82 96 98 89 92 113 114 114 133 135 135 146 144 159 171 149 92 30 31 59 77 84 86 116 165 177 169 132 320 332 333 357 12 191 179 168 156 154 138 120 91 32 41 330
25 11 1 356 17 9 6 360 350 349 351 345 344 343 350 9 15 16 14 9 10 22 20 13 12 17 19 21 24 29 60 72 78 86 85 87 113 134 132 130 131 133 116 96 73 87 70 45 43 69 63 68 64 126 170 162 137 136 101 32 345 331 347 1 316 203 175 176 172 163 161 164 138 223
22 8 349 350 7 4 7 5 357 356 358 350 346 345 359 10 21 19 12 8 2 2 357 11 8 12 14 8 20 42 46 50 58 75 78 73 74 86 105 105 100 100 103 113 102 70 40 52 27 55 96 110 95 116 151 138 147 140 150 124 333 19 349 320 337 1 1 237 233 225 207 185 203 230
23 6 354 354 5 1 15 6 2 359 359 355 355 360 358 16 26 17 12 11 8 4 8 8 7 4 8 11 25 40 25 41 62 61 71 74 74 81 87 101 105 105 108 121 117 86 51 45 25 43 70 57 57 107 123 127 154 152 70 89 87 335 339 2 34 359 349 323 312 294 264 257 255 260